Hillsdale, MI

1:43 AM EDT on October 21, 2019 (GMT -0400)
Hillsdale Municipal

Weather History for KJYM - August, 2019

Change the Weather History Date:

Friday, August 23, 2019

  Actual Average Record
Temperature  
Mean Temperature 60 °F -  
Max Temperature 72 °F 79 °F 94 °F (1976)
Min Temperature 49 °F 55 °F 37 °F (1952)
Degree Days  
Heating Degree Days 5    
Growing Degree Days 10 (Base 50)    
Moisture  
Dew Point 50 °F    
Average Humidity 73    
Maximum Humidity 95    
Minimum Humidity 44    
Precipitation  
Precipitation 0.00 in - - ()
Sea Level Pressure  
Sea Level Pressure 30.17 in    
Wind  
Wind Speed 2 mph ()    
Max Wind Speed 9 mph    
Max Gust Speed -    
Visibility 10.0 miles    
Events      
Averages and records for this station are not official NWS values.
T = Trace of Precipitation, MM = Missing Value Source: Averaged Metar Reports

Daily Weather History Graph

Daily Weather History Graph

Search for Another Location

Airport or City:

Astronomy

Aug. 23, 2019 Rise Set
Actual Time 6:54 AM EDT 8:26 PM EDT
Civil Twilight 6:25 AM EDT 8:56 PM EDT
Nautical Twilight 5:49 AM EDT 9:31 PM EDT
Astronomical Twilight 5:11 AM EDT 10:08 PM EDT
Moon 12:11 AM EDT (8/23) 2:37 PM EDT (8/23)
Length of Visible Light 14h 30m
Length of Day
13h 32m
Waning Gibbous, 50% of the Moon is Illuminated
Aug 23
Waning Gibbous
Aug 30
New
Sep 5
First Quarter
Sep 14
Full
Sep 21
Last Quarter

Hourly Weather History & Observations

Time (EDT) Temp. Dew Point Humidity Pressure Visibility Wind Dir Wind Speed Gust Speed Precip Events Conditions
12:15 AM 55.6 °F 52.0 °F 88% 30.09 in 10.0 mi Calm Calm - N/A   Clear
12:35 AM 53.8 °F 51.3 °F 91% 30.10 in 10.0 mi Calm Calm - N/A   Clear
12:55 AM 53.6 °F 50.9 °F 91% 30.10 in 10.0 mi Calm Calm - N/A   Clear
12:59 AM 53.4 °F 50.7 °F 91% 30.10 in 10.0 mi Calm Calm - N/A   Clear
1:17 AM 54.0 °F 51.4 °F 91% 30.10 in 10.0 mi Calm Calm - N/A   Clear
1:35 AM 53.2 °F 50.9 °F 92% 30.11 in 10.0 mi Calm Calm - N/A   Clear
1:55 AM 53.2 °F 51.1 °F 92% 30.11 in 10.0 mi Calm Calm - N/A   Clear
1:56 AM 53.2 °F 51.3 °F 93% 30.11 in 10.0 mi Calm Calm - N/A   Clear
2:15 AM 52.2 °F 50.5 °F 94% 30.11 in 10.0 mi Calm Calm - N/A   Clear
2:20 AM 51.8 °F 50.0 °F 94% 30.11 in 10.0 mi Calm Calm - N/A   Clear
2:56 AM 53.1 °F 51.6 °F 95% 30.12 in 10.0 mi Calm Calm - N/A   Clear
3:15 AM 52.2 °F 50.7 °F 95% 30.12 in 10.0 mi Calm Calm - N/A   Clear
3:16 AM 52.0 °F 50.4 °F 94% 30.12 in 10.0 mi Calm Calm - N/A   Clear
3:35 AM 52.0 °F 50.4 °F 94% 30.12 in 10.0 mi Calm Calm - N/A   Clear
3:36 AM 52.0 °F 50.4 °F 94% 30.12 in 10.0 mi Calm Calm - N/A   Clear
3:59 AM 52.5 °F 50.9 °F 94% 30.13 in 10.0 mi Calm Calm - N/A   Clear
4:17 AM 52.5 °F 50.9 °F 94% 30.13 in 10.0 mi Calm Calm - N/A   Clear
4:35 AM 51.6 °F 50.2 °F 95% 30.13 in 10.0 mi Calm Calm - N/A   Clear
4:36 AM 51.8 °F 50.4 °F 95% 30.13 in 10.0 mi Calm Calm - N/A   Clear
4:55 AM 52.5 °F 50.2 °F 92% 30.13 in 10.0 mi Calm Calm - N/A   Clear
4:56 AM 52.3 °F 50.0 °F 92% 30.13 in 10.0 mi Calm Calm - N/A   Clear
5:15 AM 51.1 °F 48.2 °F 90% 30.13 in 10.0 mi Calm Calm - N/A   Clear
5:38 AM 50.4 °F 48.0 °F 92% 30.13 in 10.0 mi Calm Calm - N/A   Clear
5:56 AM 51.1 °F 48.4 °F 90% 30.13 in 10.0 mi Calm Calm - N/A   Clear
6:15 AM 50.9 °F 49.1 °F 94% 30.13 in 10.0 mi Calm Calm - N/A   Clear
6:16 AM 50.7 °F 48.9 °F 94% 30.13 in 10.0 mi Calm Calm - N/A   Clear
6:35 AM 50.2 °F 48.9 °F 95% 30.14 in 10.0 mi Calm Calm - N/A   Clear
6:59 AM 50.0 °F 48.2 °F 94% 30.15 in 10.0 mi Calm Calm - N/A   Clear
7:17 AM 49.1 °F 47.7 °F 95% 30.15 in 10.0 mi Calm Calm - N/A   Clear
7:35 AM 50.9 °F 49.3 °F 94% 30.16 in 10.0 mi Calm Calm - N/A   Clear
7:36 AM 50.9 °F 49.3 °F 94% 30.16 in 10.0 mi Calm Calm - N/A   Clear
7:55 AM 53.6 °F 51.8 °F 94% 30.16 in 10.0 mi Calm Calm - N/A   Clear
7:56 AM 53.6 °F 51.8 °F 94% 30.16 in 10.0 mi Calm Calm - N/A   Clear
8:15 AM 56.3 °F 53.6 °F 91% 30.16 in 10.0 mi ENE 4.6 mph - N/A   Clear
8:38 AM 58.6 °F 53.2 °F 82% 30.17 in 10.0 mi East 4.6 mph - N/A   Clear
8:56 AM 60.1 °F 53.4 °F 79% 30.18 in 10.0 mi East 5.8 mph - N/A   Clear
9:15 AM 61.5 °F 52.3 °F 72% 30.18 in 10.0 mi ENE 5.8 mph - N/A   Clear
9:16 AM 61.7 °F 52.5 °F 72% 30.18 in 10.0 mi ENE 6.9 mph - N/A   Clear
9:35 AM 63.0 °F 52.5 °F 69% 30.18 in 10.0 mi East 6.9 mph - N/A   Clear
9:59 AM 64.4 °F 51.3 °F 62% 30.19 in 10.0 mi NE 5.8 mph - N/A   Clear
10:35 AM 65.3 °F 52.5 °F 63% 30.20 in 10.0 mi East 3.5 mph - N/A   Clear
10:36 AM 65.3 °F 52.3 °F 63% 30.20 in 10.0 mi Calm Calm - N/A   Clear
10:55 AM 66.6 °F 52.3 °F 60% 30.20 in 10.0 mi NE 6.9 mph - N/A   Clear
10:56 AM 66.4 °F 52.2 °F 60% 30.20 in 10.0 mi NE 5.8 mph - N/A   Clear
11:15 AM 66.4 °F 51.4 °F 59% 30.20 in 10.0 mi ENE 4.6 mph - N/A   Clear
11:38 AM 67.5 °F 52.2 °F 58% 30.20 in 10.0 mi North 6.9 mph - N/A   Scattered Clouds
11:56 AM 67.5 °F 50.9 °F 55% 30.20 in 10.0 mi North 3.5 mph - N/A   Scattered Clouds
12:16 PM 68.2 °F 51.1 °F 54% 30.20 in 10.0 mi NNW 3.5 mph - N/A   Scattered Clouds
12:35 PM 68.2 °F 50.4 °F 53% 30.20 in 10.0 mi NNE 4.6 mph - N/A   Mostly Cloudy
12:59 PM 67.3 °F 50.5 °F 55% 30.20 in 10.0 mi NNE 4.6 mph - N/A   Mostly Cloudy
1:17 PM 69.3 °F 50.2 °F 51% 30.20 in 10.0 mi NE 5.8 mph - N/A   Scattered Clouds
1:35 PM 70.7 °F 50.2 °F 48% 30.20 in 10.0 mi NNE 8.1 mph - N/A   Scattered Clouds
1:36 PM 70.5 °F 50.0 °F 48% 30.20 in 10.0 mi NNE 8.1 mph - N/A   Scattered Clouds
1:55 PM 70.0 °F 50.5 °F 50% 30.20 in 10.0 mi NE 6.9 mph - N/A   Scattered Clouds
2:38 PM 69.6 °F 50.7 °F 51% 30.20 in 10.0 mi North 8.1 mph - N/A   Mostly Cloudy
2:56 PM 71.4 °F 48.9 °F 45% 30.20 in 10.0 mi NE 8.1 mph - N/A   Scattered Clouds
3:15 PM 70.9 °F 49.6 °F 47% 30.19 in 10.0 mi North 5.8 mph - N/A   Mostly Cloudy
3:35 PM 70.3 °F 50.4 °F 49% 30.18 in 10.0 mi ENE 6.9 mph - N/A   Scattered Clouds
3:59 PM 68.9 °F 51.4 °F 54% 30.18 in 10.0 mi NE 6.9 mph - N/A   Mostly Cloudy
4:17 PM 71.2 °F 50.7 °F 48% 30.18 in 10.0 mi North 5.8 mph - N/A   Mostly Cloudy
4:35 PM 71.4 °F 50.4 °F 47% 30.17 in 10.0 mi NNW 9.2 mph - N/A   Scattered Clouds
4:55 PM 70.7 °F 50.4 °F 48% 30.17 in 10.0 mi North 6.9 mph - N/A   Clear
5:15 PM 71.2 °F 50.0 °F 47% 30.17 in 10.0 mi NNE 5.8 mph - N/A   Scattered Clouds
5:20 PM 71.6 °F 50.9 °F 48% 30.17 in 10.0 mi NNE 9.2 mph - N/A   Scattered Clouds
5:38 PM 69.1 °F 49.8 °F 50% 30.18 in 10.0 mi ENE 4.6 mph - N/A   Scattered Clouds
5:56 PM 70.7 °F 48.4 °F 45% 30.18 in 10.0 mi NNE 6.9 mph - N/A   Scattered Clouds
6:15 PM 70.0 °F 48.9 °F 47% 30.19 in 10.0 mi NNE 5.8 mph - N/A   Scattered Clouds
6:35 PM 69.8 °F 46.9 °F 44% 30.19 in 10.0 mi NE 5.8 mph - N/A   Clear
6:36 PM 69.8 °F 46.9 °F 44% 30.19 in 10.0 mi NE 4.6 mph - N/A   Clear
6:59 PM 69.4 °F 47.1 °F 45% 30.19 in 10.0 mi North 3.5 mph - N/A   Clear
7:17 PM 68.7 °F 47.8 °F 47% 30.19 in 10.0 mi North 4.6 mph - N/A   Clear
7:35 PM 67.6 °F 47.3 °F 48% 30.19 in 10.0 mi North 3.5 mph - N/A   Clear
7:55 PM 66.7 °F 47.5 °F 50% 30.19 in 10.0 mi NNE 3.5 mph - N/A   Clear
7:56 PM 66.6 °F 47.5 °F 50% 30.19 in 10.0 mi NNE 3.5 mph - N/A   Clear
8:20 PM 64.9 °F 47.3 °F 53% 30.19 in 10.0 mi NNE 3.5 mph - N/A   Clear
8:38 PM 63.9 °F 47.3 °F 55% 30.19 in 10.0 mi NNE 3.5 mph - N/A   Clear
8:56 PM 58.3 °F 51.3 °F 77% 30.19 in 10.0 mi Calm Calm - N/A   Clear
9:15 PM 56.3 °F 50.5 °F 81% 30.20 in 10.0 mi Calm Calm - N/A   Clear
9:16 PM 56.7 °F 50.4 °F 79% 30.20 in 10.0 mi Calm Calm - N/A   Clear
9:35 PM 54.5 °F 50.2 °F 85% 30.21 in 10.0 mi Calm Calm - N/A   Clear
9:36 PM 54.5 °F 50.4 °F 86% 30.21 in 10.0 mi Calm Calm - N/A   Clear
9:59 PM 58.1 °F 50.5 °F 76% 30.22 in 10.0 mi NE 5.8 mph - N/A   Scattered Clouds
10:17 PM 58.8 °F 49.6 °F 72% 30.22 in 10.0 mi NE 5.8 mph - N/A   Scattered Clouds
10:35 PM 55.8 °F 49.8 °F 80% 30.22 in 10.0 mi ENE 3.5 mph - N/A   Clear
10:36 PM 55.8 °F 49.8 °F 80% 30.22 in 10.0 mi ENE 3.5 mph - N/A   Clear
10:55 PM 54.9 °F 49.6 °F 83% 30.23 in 10.0 mi NE 3.5 mph - N/A   Clear
10:56 PM 54.9 °F 49.6 °F 83% 30.23 in 10.0 mi NE 3.5 mph - N/A   Clear
11:15 PM 54.9 °F 50.4 °F 85% 30.23 in 10.0 mi ENE 4.6 mph - N/A   Clear
11:20 PM 55.0 °F 50.4 °F 84% 30.23 in 10.0 mi ENE 4.6 mph - N/A   Clear
11:38 PM 54.3 °F 50.5 °F 87% 30.24 in 10.0 mi ENE 4.6 mph - N/A   Clear
11:56 PM 54.5 °F 50.7 °F 87% 30.25 in 10.0 mi ENE 4.6 mph - N/A   Clear